Weather History for Windsor, ON

Change the Weather History Date:

Wednesday, May 15, 2013

  Actual Average Record
Temperature  
Mean Temperature 69 °F -  
Max Temperature 83 °F 73 °F 87 °F (2007)
Min Temperature 55 °F 52 °F 42 °F (1997)
Cooling Degree Days 4    
Growing Degree Days 19 (Base 50)    
Moisture  
Dew Point 51 °F    
Average Humidity 51    
Maximum Humidity 88    
Minimum Humidity 21    
Precipitation  
Precipitation 0.01 in 0.11 in - ()
Sea Level Pressure  
Sea Level Pressure 29.69 in    
Wind  
Wind Speed 9 mph ()    
Max Wind Speed 23 mph    
Max Gust Speed 30 mph    
Visibility 15.0 miles    
Events Rain    
Averages and records for this station are not official NWS values.
T = Trace of Precipitation, MM = Missing Value Source: Averaged Metar Reports

Daily Weather History Graph

Daily Weather History Graph

Search for Another Location

Airport:

Trip Planner

Search our weather history database for the weather conditions in past years. The results will help you decide how hot, cold, wet, or windy it might be!

Date:

Astronomy

May. 15, 2013 Rise Set
Actual Time 6:10 AM EDT 8:46 PM EDT
Civil Twilight 5:38 AM EDT 9:18 PM EDT
Nautical Twilight 4:58 AM EDT 9:59 PM EDT
Astronomical Twilight 4:12 AM EDT 10:44 PM EDT
Moon 10:46 AM EDT (5/15) 12:31 AM EDT (5/15)
Length of Visible Light 15h 40m
Length of Day
14h 36m
Waxing Crescent, 26% of the Moon is Illuminated
May 15
Waxing Crescent
May 18
First Quarter
May 25
Full
May 31
Last Quarter
Jun 8
New

Hourly Weather History & Observations

Time (EDT) Temp. Dew Point Humidity Pressure Visibility Wind Dir Wind Speed Gust Speed Precip Events Conditions
12:00 AM 57.2 °F 48.2 °F 72% 29.76 in 15.0 mi North 5.8 mph - N/A Rain Light Rain Showers
1:00 AM 57.2 °F 50.0 °F 77% 29.75 in 15.0 mi SSE 4.6 mph - N/A Rain Light Rain Showers
1:21 AM - - N/A% - 15.0 mi ESE 3.5 mph - N/A   Mostly Cloudy
2:00 AM 56 °F 51 °F 79% 29.73 in 15 mi NE 3.5 mph - - Rain Light Rain Showers
2:00 AM 55.4 °F 51.8 °F 88% 29.73 in 15.0 mi NE 3.5 mph - N/A   Mostly Cloudy
2:22 AM - - N/A% - 15.0 mi NE 5.8 mph - N/A Rain Light Rain Showers
3:00 AM 57.2 °F 53.6 °F 88% 29.69 in 15.0 mi ESE 3.5 mph - N/A   Mostly Cloudy
4:00 AM 59.0 °F 55.4 °F 88% 29.65 in 15.0 mi SE 4.6 mph - N/A   Mostly Cloudy
4:31 AM - - N/A% - 15.0 mi South 6.9 mph - N/A   Mostly Cloudy
5:00 AM 64.4 °F 57.2 °F 77% 29.62 in 15.0 mi SSW 13.8 mph - N/A   Mostly Cloudy
6:00 AM 64.4 °F 59.0 °F 83% 29.60 in 15.0 mi SSW 11.5 mph - N/A   Partly Cloudy
7:00 AM 64.4 °F 59.0 °F 83% 29.60 in 15.0 mi SW 10.4 mph - N/A   Partly Cloudy
8:00 AM 71 °F 59 °F 56% 29.60 in 15 mi WSW 15.0 mph - -   Partly Cloudy
8:00 AM 71.6 °F 59.0 °F 64% 29.60 in 15.0 mi WSW 15.0 mph - N/A   Scattered Clouds
9:00 AM 75.2 °F 57.2 °F 53% 29.62 in 15.0 mi West 18.4 mph - N/A   Scattered Clouds
10:00 AM 78.8 °F 55.4 °F 44% 29.63 in 15.0 mi West 23.0 mph 29.9 mph N/A   Partly Cloudy
11:00 AM 80.6 °F 51.8 °F 37% 29.65 in 15.0 mi WNW 18.4 mph 27.6 mph N/A   Partly Cloudy
12:00 PM 80.6 °F 51.8 °F 37% 29.68 in 15.0 mi WNW 18.4 mph 25.3 mph N/A   Partly Cloudy
1:00 PM 82.4 °F 50.0 °F 32% 29.70 in 15.0 mi WNW 17.3 mph 24.2 mph N/A   Partly Cloudy
2:00 PM 82 °F 48 °F 21% 29.72 in 15 mi WNW 18.4 mph - -   Clear
2:00 PM 82.4 °F 48.2 °F 30% 29.72 in 15.0 mi West 19.6 mph 25.3 mph N/A   Partly Cloudy
3:00 PM 82.4 °F 48.2 °F 30% 29.72 in 15.0 mi NW 19.6 mph 27.6 mph N/A   Partly Cloudy
4:00 PM 82.4 °F 50.0 °F 32% 29.72 in 15.0 mi NW 20.7 mph - N/A   Scattered Clouds
6:00 PM 82.4 °F 48.2 °F 30% 29.72 in 15.0 mi WNW 15.0 mph - N/A   Mostly Cloudy
7:00 PM 82.4 °F 48.2 °F 30% 29.73 in 15.0 mi NW 11.5 mph 19.6 mph N/A   Mostly Cloudy
8:00 PM 79 °F 47 °F 22% 29.73 in 15 mi West 12.7 mph - -   Scattered Clouds
8:00 PM 78.8 °F 48.2 °F 34% 29.73 in 15.0 mi West 12.7 mph 18.4 mph N/A   Mostly Cloudy
9:00 PM 77.0 °F 44.6 °F 32% 29.75 in 15.0 mi WNW 9.2 mph - N/A   Mostly Cloudy
10:00 PM 75.2 °F 42.8 °F 31% 29.77 in 15.0 mi West 9.2 mph - N/A   Mostly Cloudy
11:00 PM 73.4 °F 42.8 °F 33% 29.78 in 15.0 mi West 6.9 mph - N/A   Mostly Cloudy